Time,TemperatureF,DewpointF,PressureIn,WindDirection,WindDirectionDegrees,WindSpeedMPH,WindSpeedGustMPH,Humidity,HourlyPrecipIn,Conditions,Clouds,dailyrainin,SoftwareType,DateUTC
2013-03-30 00:00:00,43.1,38.3,30.02,ESE,121,0.0,6.0,83,0.00,,---,0.00,VWS V14.00,2013-03-30 05:00:00,
2013-03-30 00:05:00,43.1,38.3,30.01,South,178,9.0,11.0,83,0.00,,---,0.00,VWS V14.00,2013-03-30 05:05:00,
2013-03-30 00:10:00,43.0,38.2,30.00,SE,141,6.0,16.0,83,0.00,,---,0.00,VWS V14.00,2013-03-30 05:10:00,
2013-03-30 00:15:00,43.2,38.4,30.01,SSE,157,11.0,16.0,83,0.00,,---,0.00,VWS V14.00,2013-03-30 05:15:00,
2013-03-30 00:20:00,43.3,38.5,30.00,SE,134,10.0,16.0,83,0.00,,---,0.00,VWS V14.00,2013-03-30 05:20:00,
2013-03-30 00:25:00,43.4,38.3,30.00,SE,141,8.0,16.0,82,0.00,,---,0.00,VWS V14.00,2013-03-30 05:25:00,
2013-03-30 00:30:00,43.6,38.5,30.00,SE,133,7.0,21.0,82,0.00,,---,0.00,VWS V14.00,2013-03-30 05:30:00,
2013-03-30 00:35:00,43.8,38.7,29.99,SE,141,10.0,21.0,82,0.00,,---,0.00,VWS V14.00,2013-03-30 05:35:00,
2013-03-30 00:40:00,43.9,38.5,29.99,SSE,161,14.0,21.0,81,0.00,,---,0.00,VWS V14.00,2013-03-30 05:40:00,
2013-03-30 00:45:00,43.9,38.5,29.99,SE,144,10.0,21.0,81,0.00,,---,0.00,VWS V14.00,2013-03-30 05:45:00,
2013-03-30 00:50:00,43.8,38.4,29.99,SSE,163,7.0,21.0,81,0.00,,---,0.00,VWS V14.00,2013-03-30 05:50:00,
2013-03-30 00:55:00,43.6,38.2,29.99,South,170,7.0,21.0,81,0.00,,---,0.00,VWS V14.00,2013-03-30 05:55:00,
2013-03-30 01:00:00,43.3,38.2,29.99,SSE,159,4.0,16.0,82,0.00,,---,0.00,VWS V14.00,2013-03-30 06:00:00,
2013-03-30 01:05:00,43.3,37.9,29.98,SSE,153,7.0,16.0,81,0.00,,---,0.00,VWS V14.00,2013-03-30 06:05:00,
2013-03-30 01:10:00,43.1,37.7,29.98,SSE,167,9.0,16.0,81,0.00,,---,0.00,VWS V14.00,2013-03-30 06:10:00,
2013-03-30 01:15:00,43.0,37.6,29.97,SSE,160,9.0,16.0,81,0.00,,---,0.00,VWS V14.00,2013-03-30 06:15:00,
2013-03-30 01:20:00,42.9,37.5,29.97,SSE,167,6.0,16.0,81,0.00,,---,0.00,VWS V14.00,2013-03-30 06:20:00,
2013-03-30 01:25:00,42.8,37.4,29.97,SSE,152,7.0,16.0,81,0.00,,---,0.00,VWS V14.00,2013-03-30 06:25:00,
2013-03-30 01:30:00,42.7,37.6,29.96,SE,144,7.0,13.0,82,0.00,,---,0.00,VWS V14.00,2013-03-30 06:30:00,
2013-03-30 01:35:00,42.8,37.4,29.96,SE,139,4.0,14.0,81,0.00,,---,0.00,VWS V14.00,2013-03-30 06:35:00,
2013-03-30 01:40:00,42.8,37.4,29.96,SE,136,4.0,14.0,81,0.00,,---,0.00,VWS V14.00,2013-03-30 06:40:00,
2013-03-30 01:45:00,42.6,37.2,29.95,SSE,155,4.0,14.0,81,0.00,,---,0.00,VWS V14.00,2013-03-30 06:45:00,
2013-03-30 01:50:00,42.4,37.0,29.96,SSE,152,3.0,14.0,81,0.00,,---,0.00,VWS V14.00,2013-03-30 06:50:00,
2013-03-30 01:55:00,42.3,36.9,29.96,SSE,166,6.0,14.0,81,0.00,,---,0.00,VWS V14.00,2013-03-30 06:55:00,
2013-03-30 02:00:00,42.1,36.7,29.96,South,173,3.0,6.0,81,0.00,,---,0.00,VWS V14.00,2013-03-30 07:00:00,
2013-03-30 02:05:00,42.1,37.0,29.96,SE,138,4.0,10.0,82,0.00,,---,0.00,VWS V14.00,2013-03-30 07:05:00,
2013-03-30 02:10:00,42.1,36.7,29.96,SSE,152,5.0,11.0,81,0.00,,---,0.00,VWS V14.00,2013-03-30 07:10:00,
2013-03-30 02:15:00,42.0,36.6,29.97,South,171,4.0,11.0,81,0.00,,---,0.00,VWS V14.00,2013-03-30 07:15:00,
2013-03-30 02:20:00,42.1,37.0,29.98,South,188,3.0,11.0,82,0.00,,---,0.01,VWS V14.00,2013-03-30 07:20:00,
2013-03-30 02:25:00,41.9,37.1,29.95,ESE,113,5.0,12.0,83,0.00,,---,0.01,VWS V14.00,2013-03-30 07:25:00,
2013-03-30 02:30:00,41.4,36.9,29.96,ESE,110,0.0,6.0,84,0.00,,---,0.01,VWS V14.00,2013-03-30 07:30:00,
2013-03-30 02:35:00,41.1,37.2,29.95,ESE,110,2.0,6.0,86,0.00,,---,0.01,VWS V14.00,2013-03-30 07:35:00,
2013-03-30 02:40:00,40.9,37.3,29.94,ESE,105,4.0,7.0,87,0.00,,---,0.01,VWS V14.00,2013-03-30 07:40:00,
2013-03-30 02:45:00,40.8,37.2,29.93,East,96,3.0,10.0,87,0.00,,---,0.01,VWS V14.00,2013-03-30 07:45:00,
2013-03-30 02:50:00,40.9,37.3,29.93,SE,135,0.0,10.0,87,0.00,,---,0.01,VWS V14.00,2013-03-30 07:50:00,
2013-03-30 02:55:00,41.0,37.1,29.93,ESE,114,0.0,10.0,86,0.00,,---,0.01,VWS V14.00,2013-03-30 07:55:00,
2013-03-30 03:00:00,41.1,37.2,29.94,ESE,106,0.0,0.0,86,0.00,,---,0.01,VWS V14.00,2013-03-30 08:00:00,
2013-03-30 03:05:00,41.1,36.9,29.94,ESE,106,0.0,0.0,85,0.00,,---,0.01,VWS V14.00,2013-03-30 08:05:00,
2013-03-30 03:10:00,41.1,36.9,29.93,ESE,106,0.0,0.0,85,0.00,,---,0.01,VWS V14.00,2013-03-30 08:10:00,
2013-03-30 03:15:00,41.1,36.9,29.93,ESE,106,0.0,0.0,85,0.00,,---,0.01,VWS V14.00,2013-03-30 08:15:00,
2013-03-30 03:20:00,41.1,36.6,29.93,ESE,106,0.0,0.0,84,0.00,,---,0.01,VWS V14.00,2013-03-30 08:20:00,
2013-03-30 03:25:00,41.0,36.5,29.93,ESE,106,0.0,0.0,84,0.00,,---,0.01,VWS V14.00,2013-03-30 08:25:00,
2013-03-30 03:30:00,41.1,36.9,29.93,ESE,106,0.0,0.0,85,0.00,,---,0.01,VWS V14.00,2013-03-30 08:30:00,
2013-03-30 03:35:00,41.1,36.9,29.92,ESE,106,0.0,0.0,85,0.00,,---,0.01,VWS V14.00,2013-03-30 08:35:00,
2013-03-30 03:40:00,40.9,36.5,29.94,East,98,0.0,0.0,84,0.00,,---,0.01,VWS V14.00,2013-03-30 08:40:00,
2013-03-30 03:45:00,40.5,36.0,29.93,East,97,0.0,0.0,84,0.00,,---,0.02,VWS V14.00,2013-03-30 08:45:00,
2013-03-30 03:50:00,40.1,36.0,29.94,East,97,0.0,0.0,85,0.11,,---,0.03,VWS V14.00,2013-03-30 08:50:00,
2013-03-30 03:55:00,39.5,35.7,29.94,North,355,4.0,6.0,86,0.11,,---,0.03,VWS V14.00,2013-03-30 08:55:00,
2013-03-30 04:00:00,39.0,35.8,29.94,North,360,0.0,2.0,88,0.06,,---,0.04,VWS V14.00,2013-03-30 09:00:00,
2013-03-30 04:05:00,38.5,35.3,29.95,NE,40,0.0,2.0,88,0.12,,---,0.05,VWS V14.00,2013-03-30 09:05:00,
2013-03-30 04:10:00,38.3,35.6,29.94,NNE,26,0.0,5.0,90,0.12,,---,0.05,VWS V14.00,2013-03-30 09:10:00,
2013-03-30 04:15:00,38.2,35.5,29.93,ESE,112,0.0,5.0,90,0.07,,---,0.06,VWS V14.00,2013-03-30 09:15:00,
2013-03-30 04:20:00,38.2,36.1,29.93,ESE,112,0.0,5.0,92,0.14,,---,0.07,VWS V14.00,2013-03-30 09:20:00,
2013-03-30 04:25:00,38.4,36.3,29.92,ESE,121,0.0,5.0,92,0.08,,---,0.08,VWS V14.00,2013-03-30 09:25:00,
2013-03-30 04:30:00,38.6,36.8,29.92,ESE,123,0.0,0.0,93,0.13,,---,0.09,VWS V14.00,2013-03-30 09:30:00,
2013-03-30 04:34:00,38.7,36.8,29.91,ESE,123,0.0,0.0,93,0.13,,---,0.09,VWS V14.00,2013-03-30 09:34:00,
2013-03-30 04:39:00,38.6,36.8,29.91,ESE,123,0.0,0.0,93,0.07,,---,0.10,VWS V14.00,2013-03-30 09:39:00,
2013-03-30 04:44:00,38.6,36.8,29.91,ESE,123,0.0,0.0,93,0.07,,---,0.10,VWS V14.00,2013-03-30 09:44:00,
2013-03-30 04:49:00,38.4,36.6,29.90,ESE,123,0.0,0.0,93,0.09,,---,0.11,VWS V14.00,2013-03-30 09:49:00,
2013-03-30 04:54:00,38.4,36.6,29.90,SE,124,0.0,2.0,93,0.07,,---,0.11,VWS V14.00,2013-03-30 09:54:00,
2013-03-30 04:59:00,38.4,36.8,29.89,SE,125,0.0,0.0,94,0.04,,---,0.11,VWS V14.00,2013-03-30 09:59:00,
2013-03-30 05:00:00,38.4,36.6,29.90,SE,124,0.0,6.0,93,0.05,,---,0.11,VWS V14.00,2013-03-30 10:00:00,
2013-03-30 05:04:00,38.5,36.9,29.90,ESE,120,0.0,5.0,94,0.00,,---,0.11,VWS V14.00,2013-03-30 10:04:00,
2013-03-30 05:09:00,38.6,37.0,29.90,ESE,120,0.0,5.0,94,0.00,,---,0.11,VWS V14.00,2013-03-30 10:09:00,
2013-03-30 05:14:00,38.7,36.8,29.89,ESE,120,0.0,5.0,93,0.00,,---,0.11,VWS V14.00,2013-03-30 10:14:00,
2013-03-30 05:19:00,38.8,37.0,29.89,ESE,120,0.0,5.0,93,0.00,,---,0.11,VWS V14.00,2013-03-30 10:19:00,
2013-03-30 05:24:00,39.0,37.2,29.89,ESE,120,0.0,5.0,93,0.00,,---,0.11,VWS V14.00,2013-03-30 10:24:00,
2013-03-30 05:29:00,39.1,37.2,29.89,ESE,121,0.0,0.0,93,0.00,,---,0.11,VWS V14.00,2013-03-30 10:29:00,
2013-03-30 05:30:00,39.1,37.2,29.89,ESE,121,0.0,5.0,93,0.00,,---,0.11,VWS V14.00,2013-03-30 10:30:00,
2013-03-30 05:34:00,39.2,37.3,29.89,SSE,167,2.0,6.0,93,0.00,,---,0.11,VWS V14.00,2013-03-30 10:34:00,
2013-03-30 05:39:00,39.2,37.3,29.89,SSE,166,0.0,6.0,93,0.00,,---,0.11,VWS V14.00,2013-03-30 10:39:00,
2013-03-30 05:44:00,39.2,37.1,29.88,SSW,195,0.0,6.0,92,0.00,,---,0.11,VWS V14.00,2013-03-30 10:44:00,
2013-03-30 05:49:00,39.1,37.0,29.88,SSE,168,0.0,7.0,92,0.00,,---,0.11,VWS V14.00,2013-03-30 10:49:00,
2013-03-30 05:54:00,39.1,37.0,29.88,South,178,0.0,7.0,92,0.00,,---,0.11,VWS V14.00,2013-03-30 10:54:00,
2013-03-30 05:59:00,39.0,36.9,29.88,South,186,0.0,0.0,92,0.00,,---,0.11,VWS V14.00,2013-03-30 10:59:00,
2013-03-30 06:00:00,39.0,36.9,29.88,South,178,0.0,7.0,92,0.00,,---,0.11,VWS V14.00,2013-03-30 11:00:00,
2013-03-30 06:04:00,39.0,36.9,29.88,SSW,212,2.0,9.0,92,0.00,,---,0.11,VWS V14.00,2013-03-30 11:04:00,
2013-03-30 06:09:00,38.9,36.8,29.88,SSW,207,0.0,9.0,92,0.00,,---,0.11,VWS V14.00,2013-03-30 11:09:00,
2013-03-30 06:14:00,38.9,36.8,29.88,SSW,207,0.0,9.0,92,0.00,,---,0.11,VWS V14.00,2013-03-30 11:14:00,
2013-03-30 06:19:00,39.0,36.6,29.88,South,190,0.0,9.0,91,0.00,,---,0.11,VWS V14.00,2013-03-30 11:19:00,
2013-03-30 06:24:00,39.0,36.6,29.88,South,190,2.0,9.0,91,0.00,,---,0.12,VWS V14.00,2013-03-30 11:24:00,
2013-03-30 06:29:00,39.1,36.7,29.88,SSW,199,0.0,0.0,91,0.00,,---,0.12,VWS V14.00,2013-03-30 11:29:00,
2013-03-30 06:30:00,39.1,36.7,29.88,SSW,199,0.0,9.0,91,0.00,,---,0.12,VWS V14.00,2013-03-30 11:30:00,
2013-03-30 06:34:00,39.0,36.6,29.88,SSW,206,0.0,0.0,91,0.09,,---,0.13,VWS V14.00,2013-03-30 11:34:00,
2013-03-30 06:39:00,38.9,36.5,29.88,SW,221,3.0,6.0,91,0.06,,---,0.13,VWS V14.00,2013-03-30 11:39:00,
2013-03-30 06:44:00,38.8,36.4,29.88,SW,215,6.0,7.0,91,0.05,,---,0.14,VWS V14.00,2013-03-30 11:44:00,
2013-03-30 06:49:00,38.8,36.7,29.88,SSW,209,2.0,7.0,92,0.10,,---,0.15,VWS V14.00,2013-03-30 11:49:00,
2013-03-30 06:54:00,38.6,36.5,29.88,WSW,238,4.0,7.0,92,0.09,,---,0.15,VWS V14.00,2013-03-30 11:54:00,
2013-03-30 06:59:00,38.6,36.5,29.87,SW,220,4.0,6.0,92,0.06,,---,0.16,VWS V14.00,2013-03-30 11:59:00,
2013-03-30 07:00:00,38.5,36.4,29.87,SW,222,5.0,9.0,92,0.06,,---,0.15,VWS V14.00,2013-03-30 12:00:00,
2013-03-30 07:04:00,38.4,36.6,29.87,SW,222,2.0,6.0,93,0.10,,---,0.17,VWS V14.00,2013-03-30 12:04:00,
2013-03-30 07:09:00,38.4,36.6,29.87,SW,221,0.0,6.0,93,0.10,,---,0.17,VWS V14.00,2013-03-30 12:09:00,
2013-03-30 07:14:00,38.4,36.6,29.87,SW,228,2.0,6.0,93,0.06,,---,0.17,VWS V14.00,2013-03-30 12:14:00,
2013-03-30 07:19:00,38.4,36.6,29.87,SW,214,2.0,6.0,93,0.04,,---,0.18,VWS V14.00,2013-03-30 12:19:00,
2013-03-30 07:24:00,38.5,36.7,29.87,SW,219,5.0,7.0,93,0.04,,---,0.18,VWS V14.00,2013-03-30 12:24:00,
2013-03-30 07:29:00,38.6,36.8,29.87,SW,229,3.0,7.0,93,0.04,,---,0.18,VWS V14.00,2013-03-30 12:29:00,
2013-03-30 07:30:00,38.6,36.8,29.87,SW,227,7.0,7.0,93,0.04,,---,0.18,VWS V14.00,2013-03-30 12:30:00,
2013-03-30 07:34:00,38.6,36.8,29.87,WSW,245,5.0,7.0,93,0.04,,---,0.18,VWS V14.00,2013-03-30 12:34:00,
2013-03-30 07:39:00,38.7,36.8,29.86,SSW,196,7.0,10.0,93,0.00,,---,0.18,VWS V14.00,2013-03-30 12:39:00,
2013-03-30 07:44:00,38.8,37.0,29.86,SSW,210,3.0,10.0,93,0.00,,---,0.18,VWS V14.00,2013-03-30 12:44:00,
2013-03-30 07:49:00,38.8,37.0,29.86,SW,215,5.0,10.0,93,0.00,,---,0.18,VWS V14.00,2013-03-30 12:49:00,
2013-03-30 07:54:00,38.8,37.0,29.86,SW,219,4.0,10.0,93,0.00,,---,0.18,VWS V14.00,2013-03-30 12:54:00,
2013-03-30 07:59:00,39.0,37.2,29.86,SSW,210,5.0,10.0,93,0.00,,---,0.18,VWS V14.00,2013-03-30 12:59:00,
2013-03-30 08:00:00,38.9,37.0,29.86,SW,225,8.0,10.0,93,0.00,,---,0.18,VWS V14.00,2013-03-30 13:00:00,
2013-03-30 08:04:00,39.2,37.3,29.86,SW,225,8.0,10.0,93,0.00,,---,0.18,VWS V14.00,2013-03-30 13:04:00,
2013-03-30 08:09:00,39.3,37.7,29.86,SW,227,5.0,10.0,94,0.00,,---,0.18,VWS V14.00,2013-03-30 13:09:00,
2013-03-30 08:14:00,39.5,37.7,29.86,SW,229,1.0,10.0,93,0.00,,---,0.18,VWS V14.00,2013-03-30 13:14:00,
2013-03-30 08:19:00,39.4,37.5,29.86,SW,225,4.0,11.0,93,0.00,,---,0.18,VWS V14.00,2013-03-30 13:19:00,
2013-03-30 08:24:00,39.5,37.7,29.86,SW,227,6.0,11.0,93,0.00,,---,0.18,VWS V14.00,2013-03-30 13:24:00,
2013-03-30 08:29:00,39.5,37.9,29.87,SW,232,4.0,7.0,94,0.00,,---,0.18,VWS V14.00,2013-03-30 13:29:00,
2013-03-30 08:30:00,39.5,37.7,29.87,SW,229,5.0,11.0,93,0.00,,---,0.18,VWS V14.00,2013-03-30 13:30:00,
2013-03-30 08:34:00,39.6,38.0,29.87,SW,233,0.0,7.0,94,0.00,,---,0.18,VWS V14.00,2013-03-30 13:34:00,
2013-03-30 08:39:00,39.6,38.0,29.87,SW,234,0.0,7.0,94,0.00,,---,0.18,VWS V14.00,2013-03-30 13:39:00,
2013-03-30 08:44:00,39.8,38.2,29.87,WSW,257,0.0,7.0,94,0.00,,---,0.18,VWS V14.00,2013-03-30 13:44:00,
2013-03-30 08:49:00,39.8,38.2,29.87,WSW,257,0.0,7.0,94,0.00,,---,0.18,VWS V14.00,2013-03-30 13:49:00,
2013-03-30 08:54:00,40.0,38.4,29.87,West,267,4.0,7.0,94,0.00,,---,0.18,VWS V14.00,2013-03-30 13:54:00,
2013-03-30 08:59:00,40.2,38.6,29.87,WSW,244,4.0,6.0,94,0.00,,---,0.18,VWS V14.00,2013-03-30 13:59:00,
2013-03-30 09:00:00,40.2,38.6,29.87,WSW,248,4.0,7.0,94,0.00,,---,0.18,VWS V14.00,2013-03-30 14:00:00,
2013-03-30 09:04:00,40.5,38.9,29.87,WSW,246,3.0,6.0,94,0.00,,---,0.18,VWS V14.00,2013-03-30 14:04:00,
2013-03-30 09:09:00,40.8,39.2,29.87,WSW,248,0.0,6.0,94,0.00,,---,0.18,VWS V14.00,2013-03-30 14:09:00,
2013-03-30 09:14:00,41.2,39.6,29.87,West,279,0.0,6.0,94,0.00,,---,0.18,VWS V14.00,2013-03-30 14:14:00,
2013-03-30 09:18:00,41.6,40.0,29.87,West,281,5.0,7.0,94,0.00,,---,0.18,VWS V14.00,2013-03-30 14:18:00,
2013-03-30 09:23:00,41.9,40.0,29.86,WNW,287,0.0,7.0,93,0.00,,---,0.18,VWS V14.00,2013-03-30 14:23:00,
2013-03-30 09:28:00,42.2,40.3,29.86,WSW,256,2.0,6.0,93,0.00,,---,0.18,VWS V14.00,2013-03-30 14:28:00,
2013-03-30 09:30:00,42.1,40.2,29.86,West,281,0.0,7.0,93,0.00,,---,0.18,VWS V14.00,2013-03-30 14:30:00,
2013-03-30 09:33:00,42.5,40.3,29.86,West,281,4.0,7.0,92,0.00,,---,0.18,VWS V14.00,2013-03-30 14:33:00,
2013-03-30 09:39:00,42.6,40.2,29.86,West,276,6.0,12.0,91,0.00,,---,0.18,VWS V14.00,2013-03-30 14:39:00,
2013-03-30 09:44:00,42.7,40.3,29.86,WNW,301,4.0,12.0,91,0.00,,---,0.18,VWS V14.00,2013-03-30 14:44:00,
2013-03-30 09:49:00,42.7,40.3,29.86,WNW,302,0.0,12.0,91,0.00,,---,0.18,VWS V14.00,2013-03-30 14:49:00,
2013-03-30 09:54:00,42.8,40.1,29.86,WNW,296,6.0,12.0,90,0.00,,---,0.18,VWS V14.00,2013-03-30 14:54:00,
2013-03-30 09:58:00,42.8,40.1,29.86,WNW,296,0.0,6.0,90,0.00,,---,0.18,VWS V14.00,2013-03-30 14:58:00,
2013-03-30 10:00:00,42.8,40.1,29.86,WNW,300,4.0,12.0,90,0.00,,---,0.18,VWS V14.00,2013-03-30 15:00:00,
2013-03-30 10:03:00,42.8,40.1,29.87,NW,304,5.0,10.0,90,0.00,,---,0.18,VWS V14.00,2013-03-30 15:03:00,
2013-03-30 10:08:00,42.8,40.1,29.86,NW,308,4.0,11.0,90,0.00,,---,0.18,VWS V14.00,2013-03-30 15:08:00,
2013-03-30 10:13:00,42.8,40.1,29.87,WNW,297,0.0,11.0,90,0.00,,---,0.18,VWS V14.00,2013-03-30 15:13:00,
2013-03-30 10:18:00,43.0,40.0,29.87,WNW,288,2.0,11.0,89,0.00,,---,0.18,VWS V14.00,2013-03-30 15:18:00,
2013-03-30 10:23:00,43.3,40.3,29.86,NNW,327,5.0,11.0,89,0.00,,---,0.18,VWS V14.00,2013-03-30 15:23:00,
2013-03-30 10:28:00,43.5,40.2,29.87,NW,310,10.0,12.0,88,0.00,,---,0.18,VWS V14.00,2013-03-30 15:28:00,
2013-03-30 10:30:00,43.4,40.4,29.87,NW,312,5.0,11.0,89,0.00,,---,0.18,VWS V14.00,2013-03-30 15:30:00,
2013-03-30 10:33:00,43.7,40.4,29.87,WNW,302,8.0,12.0,88,0.00,,---,0.18,VWS V14.00,2013-03-30 15:33:00,
2013-03-30 10:38:00,44.0,40.4,29.87,NW,306,5.0,12.0,87,0.00,,---,0.18,VWS V14.00,2013-03-30 15:38:00,
2013-03-30 10:43:00,44.0,40.1,29.87,NW,325,5.0,12.0,86,0.00,,---,0.18,VWS V14.00,2013-03-30 15:43:00,
2013-03-30 10:48:00,43.8,39.9,29.87,WNW,288,9.0,14.0,86,0.00,,---,0.18,VWS V14.00,2013-03-30 15:48:00,
2013-03-30 10:53:00,43.8,39.9,29.87,NNW,337,12.0,15.0,86,0.00,,---,0.18,VWS V14.00,2013-03-30 15:53:00,
2013-03-30 10:58:00,43.9,40.0,29.88,NW,307,7.0,13.0,86,0.00,,---,0.18,VWS V14.00,2013-03-30 15:58:00,
2013-03-30 11:00:00,43.9,40.0,29.88,WNW,300,7.0,15.0,86,0.00,,---,0.18,VWS V14.00,2013-03-30 16:00:00,
2013-03-30 11:03:00,44.1,40.2,29.88,NW,314,9.0,13.0,86,0.00,,---,0.18,VWS V14.00,2013-03-30 16:03:00,
2013-03-30 11:08:00,44.2,40.0,29.88,NW,320,10.0,13.0,85,0.00,,---,0.18,VWS V14.00,2013-03-30 16:08:00,
2013-03-30 11:13:00,44.1,39.9,29.88,WNW,298,5.0,16.0,85,0.00,,---,0.18,VWS V14.00,2013-03-30 16:13:00,
2013-03-30 11:18:00,44.2,40.3,29.88,WNW,291,6.0,16.0,86,0.00,,---,0.18,VWS V14.00,2013-03-30 16:18:00,
2013-03-30 11:30:00,44.6,40.7,29.88,NW,315,7.0,16.0,86,0.00,,---,0.18,VWS V14.00,2013-03-30 16:30:00,
2013-03-30 12:00:00,45.5,41.0,29.87,NW,315,5.0,12.0,84,0.00,,---,0.18,VWS V14.00,2013-03-30 17:00:00,
2013-03-30 12:30:00,45.7,41.2,29.88,NW,315,7.0,12.0,84,0.00,,---,0.18,VWS V14.00,2013-03-30 17:30:00,
2013-03-30 13:00:00,46.0,40.8,29.88,WNW,292,4.0,11.0,82,0.00,,---,0.18,VWS V14.00,2013-03-30 18:00:00,
2013-03-30 13:30:00,46.0,40.8,29.88,WNW,292,5.0,11.0,82,0.00,,---,0.18,VWS V14.00,2013-03-30 18:30:00,
2013-03-30 14:00:00,45.8,40.9,29.87,WNW,292,5.0,12.0,83,0.00,,---,0.18,VWS V14.00,2013-03-30 19:00:00,
2013-03-30 14:30:00,45.4,40.2,29.87,WNW,292,5.0,12.0,82,0.00,,---,0.18,VWS V14.00,2013-03-30 19:30:00,
2013-03-30 15:00:00,45.2,39.7,29.86,WNW,292,5.0,11.0,81,0.00,,---,0.18,VWS V14.00,2013-03-30 20:00:00,
2013-03-30 15:30:00,45.2,39.1,29.86,NW,315,7.0,13.0,79,0.00,,---,0.18,VWS V14.00,2013-03-30 20:30:00,
2013-03-30 16:00:00,44.6,39.1,29.87,NW,315,8.0,14.0,81,0.00,,---,0.18,VWS V14.00,2013-03-30 21:00:00,
2013-03-30 16:30:00,44.8,39.0,29.87,NW,315,6.0,15.0,80,0.00,,---,0.18,VWS V14.00,2013-03-30 21:30:00,
2013-03-30 16:41:00,44.7,38.9,29.87,NW,305,4.0,6.0,80,0.00,,---,0.18,VWS V14.00,2013-03-30 21:41:00,
2013-03-30 16:46:00,44.8,38.7,29.87,WSW,246,5.0,9.0,79,0.00,,---,0.18,VWS V14.00,2013-03-30 21:46:00,
2013-03-30 16:51:00,44.7,38.6,29.87,WNW,300,6.0,11.0,79,0.00,,---,0.18,VWS V14.00,2013-03-30 21:51:00,
2013-03-30 16:56:00,44.4,38.3,29.87,NW,322,5.0,13.0,79,0.00,,---,0.18,VWS V14.00,2013-03-30 21:56:00,
2013-03-30 17:00:00,44.4,38.3,29.87,WNW,287,3.0,13.0,79,0.00,,---,0.18,VWS V14.00,2013-03-30 22:00:00,
2013-03-30 17:01:00,44.1,38.0,29.87,WNW,294,6.0,12.0,79,0.00,,---,0.18,VWS V14.00,2013-03-30 22:01:00,
2013-03-30 17:06:00,43.9,37.8,29.87,NW,304,7.0,12.0,79,0.00,,---,0.18,VWS V14.00,2013-03-30 22:06:00,
2013-03-30 17:11:00,43.6,37.5,29.87,NW,312,10.0,12.0,79,0.00,,---,0.18,VWS V14.00,2013-03-30 22:11:00,
2013-03-30 17:16:00,43.2,37.5,29.87,WNW,294,6.0,13.0,80,0.00,,---,0.18,VWS V14.00,2013-03-30 22:16:00,
2013-03-30 17:21:00,43.1,37.4,29.87,WNW,292,5.0,15.0,80,0.00,,---,0.18,VWS V14.00,2013-03-30 22:21:00,
2013-03-30 17:26:00,43.0,37.3,29.86,WNW,292,3.0,15.0,80,0.00,,---,0.18,VWS V14.00,2013-03-30 22:26:00,
2013-03-30 17:30:00,43.0,37.3,29.86,WNW,303,7.0,15.0,80,0.00,,---,0.18,VWS V14.00,2013-03-30 22:30:00,
2013-03-30 17:31:00,42.9,37.2,29.87,NW,306,8.0,12.0,80,0.00,,---,0.18,VWS V14.00,2013-03-30 22:31:00,
2013-03-30 17:36:00,43.0,37.6,29.86,WNW,292,5.0,12.0,81,0.00,,---,0.18,VWS V14.00,2013-03-30 22:36:00,
2013-03-30 17:41:00,43.1,37.4,29.87,NW,309,3.0,12.0,80,0.00,,---,0.18,VWS V14.00,2013-03-30 22:41:00,
2013-03-30 17:46:00,43.1,37.4,29.86,NW,321,2.0,12.0,80,0.00,,---,0.18,VWS V14.00,2013-03-30 22:46:00,
2013-03-30 17:51:00,43.1,37.4,29.86,NW,311,10.0,12.0,80,0.00,,---,0.18,VWS V14.00,2013-03-30 22:51:00,
2013-03-30 17:56:00,42.9,37.2,29.87,WNW,300,7.0,14.0,80,0.00,,---,0.18,VWS V14.00,2013-03-30 22:56:00,
2013-03-30 18:00:00,42.9,37.2,29.87,WNW,300,6.0,14.0,80,0.00,,---,0.18,VWS V14.00,2013-03-30 23:00:00,
2013-03-30 18:01:00,42.9,37.2,29.87,NW,313,6.0,11.0,80,0.00,,---,0.18,VWS V14.00,2013-03-30 23:01:00,
2013-03-30 18:06:00,43.0,37.3,29.87,NW,315,5.0,12.0,80,0.00,,---,0.18,VWS V14.00,2013-03-30 23:06:00,
2013-03-30 18:11:00,43.1,37.0,29.87,WNW,297,2.0,12.0,79,0.00,,---,0.18,VWS V14.00,2013-03-30 23:11:00,
2013-03-30 18:16:00,43.3,37.2,29.87,West,271,6.0,12.0,79,0.00,,---,0.18,VWS V14.00,2013-03-30 23:16:00,
2013-03-30 18:21:00,43.3,37.2,29.87,WNW,300,5.0,12.0,79,0.00,,---,0.18,VWS V14.00,2013-03-30 23:21:00,
2013-03-30 18:26:00,43.3,37.2,29.87,West,273,5.0,12.0,79,0.00,,---,0.18,VWS V14.00,2013-03-30 23:26:00,
2013-03-30 18:30:00,43.3,37.2,29.87,WNW,284,4.0,12.0,79,0.00,,---,0.18,VWS V14.00,2013-03-30 23:30:00,
2013-03-30 18:31:00,43.2,37.1,29.87,West,264,2.0,7.0,79,0.00,,---,0.18,VWS V14.00,2013-03-30 23:31:00,
2013-03-30 18:36:00,43.2,37.1,29.87,WNW,291,4.0,7.0,79,0.00,,---,0.18,VWS V14.00,2013-03-30 23:36:00,
2013-03-30 18:41:00,43.1,37.0,29.87,WNW,284,2.0,7.0,79,0.00,,---,0.18,VWS V14.00,2013-03-30 23:41:00,
2013-03-30 18:46:00,42.9,36.8,29.87,West,273,3.0,7.0,79,0.00,,---,0.18,VWS V14.00,2013-03-30 23:46:00,
2013-03-30 18:51:00,42.7,36.7,29.87,West,276,3.0,7.0,79,0.00,,---,0.18,VWS V14.00,2013-03-30 23:51:00,
2013-03-30 18:56:00,42.4,36.7,29.87,West,264,4.0,7.0,80,0.00,,---,0.18,VWS V14.00,2013-03-30 23:56:00,
2013-03-30 19:00:00,42.4,36.7,29.87,West,265,2.0,7.0,80,0.00,,---,0.18,VWS V14.00,2013-03-31 00:00:00,
2013-03-30 19:01:00,42.0,36.3,29.86,West,270,2.0,7.0,80,0.00,,---,0.18,VWS V14.00,2013-03-31 00:01:00,
2013-03-30 19:06:00,41.6,36.2,29.86,WNW,285,5.0,7.0,81,0.00,,---,0.18,VWS V14.00,2013-03-31 00:06:00,
2013-03-30 19:11:00,41.2,35.8,29.86,West,281,4.0,9.0,81,0.00,,---,0.18,VWS V14.00,2013-03-31 00:11:00,
2013-03-30 19:16:00,40.9,35.8,29.86,West,277,2.0,9.0,82,0.00,,---,0.18,VWS V14.00,2013-03-31 00:16:00,
2013-03-30 19:21:00,40.6,35.5,29.86,West,274,4.0,9.0,82,0.00,,---,0.18,VWS V14.00,2013-03-31 00:21:00,
2013-03-30 19:26:00,40.2,35.5,29.86,West,275,2.0,9.0,83,0.00,,---,0.18,VWS V14.00,2013-03-31 00:26:00,
2013-03-30 19:30:00,40.1,35.4,29.86,West,279,4.0,9.0,83,0.00,,---,0.18,VWS V14.00,2013-03-31 00:30:00,
2013-03-30 19:31:00,39.8,35.1,29.86,WNW,286,3.0,6.0,83,0.00,,---,0.18,VWS V14.00,2013-03-31 00:31:00,
2013-03-30 19:36:00,39.5,35.1,29.86,West,277,3.0,9.0,84,0.00,,---,0.18,VWS V14.00,2013-03-31 00:36:00,
2013-03-30 19:41:00,39.3,34.9,29.86,WNW,292,1.0,9.0,84,0.00,,---,0.18,VWS V14.00,2013-03-31 00:41:00,
2013-03-30 19:46:00,39.0,34.6,29.86,WNW,292,0.0,9.0,84,0.00,,---,0.18,VWS V14.00,2013-03-31 00:46:00,
2013-03-30 19:51:00,38.9,34.5,29.86,WNW,294,1.0,11.0,84,0.00,,---,0.18,VWS V14.00,2013-03-31 00:51:00,
2013-03-30 19:56:00,38.8,34.4,29.86,WNW,295,0.0,11.0,84,0.00,,---,0.18,VWS V14.00,2013-03-31 00:56:00,
2013-03-30 20:00:00,38.7,34.3,29.86,NW,318,0.0,6.0,84,0.00,,---,0.18,VWS V14.00,2013-03-31 01:00:00,
2013-03-30 20:05:00,38.6,34.2,29.86,WNW,286,0.0,6.0,84,0.00,,---,0.18,VWS V14.00,2013-03-31 01:05:00,
2013-03-30 20:10:00,38.6,34.5,29.86,West,273,2.0,6.0,85,0.00,,---,0.18,VWS V14.00,2013-03-31 01:10:00,
2013-03-30 20:15:00,38.4,34.3,29.87,West,280,0.0,6.0,85,0.00,,---,0.18,VWS V14.00,2013-03-31 01:15:00,
2013-03-30 20:20:00,38.2,34.1,29.87,WNW,289,1.0,6.0,85,0.00,,---,0.18,VWS V14.00,2013-03-31 01:20:00,
2013-03-30 20:25:00,38.0,34.2,29.87,WNW,287,0.0,6.0,86,0.00,,---,0.18,VWS V14.00,2013-03-31 01:25:00,
2013-03-30 20:30:00,37.9,34.1,29.87,WNW,286,1.0,5.0,86,0.00,,---,0.18,VWS V14.00,2013-03-31 01:30:00,
2013-03-30 20:35:00,37.8,34.0,29.87,WNW,284,0.0,5.0,86,0.00,,---,0.18,VWS V14.00,2013-03-31 01:35:00,
2013-03-30 20:40:00,37.7,34.2,29.87,WNW,286,0.0,6.0,87,0.00,,---,0.18,VWS V14.00,2013-03-31 01:40:00,
2013-03-30 20:45:00,37.5,34.0,29.88,WNW,287,0.0,6.0,87,0.00,,---,0.18,VWS V14.00,2013-03-31 01:45:00,
2013-03-30 20:50:00,37.4,33.9,29.88,NNW,336,1.0,6.0,87,0.00,,---,0.18,VWS V14.00,2013-03-31 01:50:00,
2013-03-30 20:55:00,37.2,34.0,29.88,NW,311,4.0,9.0,88,0.00,,---,0.18,VWS V14.00,2013-03-31 01:55:00,
2013-03-30 21:00:00,37.1,33.9,29.88,NW,321,5.0,6.0,88,0.00,,---,0.18,VWS V14.00,2013-03-31 02:00:00,
2013-03-30 21:05:00,36.9,33.7,29.88,West,281,0.0,11.0,88,0.00,,---,0.18,VWS V14.00,2013-03-31 02:05:00,
2013-03-30 21:10:00,36.7,33.5,29.88,WNW,302,0.0,11.0,88,0.00,,---,0.18,VWS V14.00,2013-03-31 02:10:00,
2013-03-30 21:15:00,36.5,33.6,29.88,WNW,303,0.0,11.0,89,0.00,,---,0.18,VWS V14.00,2013-03-31 02:15:00,
2013-03-30 21:20:00,36.3,33.4,29.88,WNW,292,1.0,11.0,89,0.00,,---,0.18,VWS V14.00,2013-03-31 02:20:00,
2013-03-30 21:25:00,36.2,33.3,29.88,NW,315,0.0,11.0,89,0.00,,---,0.18,VWS V14.00,2013-03-31 02:25:00,
2013-03-30 21:30:00,36.1,33.2,29.88,WNW,286,3.0,8.0,89,0.00,,---,0.18,VWS V14.00,2013-03-31 02:30:00,
2013-03-30 21:35:00,36.0,33.1,29.88,WNW,293,0.0,8.0,89,0.00,,---,0.18,VWS V14.00,2013-03-31 02:35:00,
2013-03-30 21:40:00,35.9,33.3,29.88,WNW,296,0.0,8.0,90,0.00,,---,0.18,VWS V14.00,2013-03-31 02:40:00,
2013-03-30 21:45:00,35.7,33.1,29.88,WNW,282,0.0,8.0,90,0.00,,---,0.18,VWS V14.00,2013-03-31 02:45:00,
2013-03-30 21:50:00,35.6,33.0,29.88,WNW,290,0.0,8.0,90,0.00,,---,0.18,VWS V14.00,2013-03-31 02:50:00,
2013-03-30 21:55:00,35.5,32.9,29.88,WNW,292,0.0,8.0,90,0.00,,---,0.18,VWS V14.00,2013-03-31 02:55:00,
2013-03-30 22:00:00,35.4,32.8,29.88,WNW,292,0.0,0.0,90,0.00,,---,0.18,VWS V14.00,2013-03-31 03:00:00,
2013-03-30 22:05:00,35.3,32.7,29.88,WNW,298,0.0,10.0,90,0.00,,---,0.18,VWS V14.00,2013-03-31 03:05:00,
2013-03-30 22:10:00,35.2,32.6,29.88,NW,307,0.0,10.0,90,0.00,,---,0.18,VWS V14.00,2013-03-31 03:10:00,
2013-03-30 22:15:00,35.1,32.7,29.88,WNW,290,0.0,10.0,91,0.00,,---,0.18,VWS V14.00,2013-03-31 03:15:00,
2013-03-30 22:20:00,35.0,32.6,29.88,WNW,288,0.0,10.0,91,0.00,,---,0.18,VWS V14.00,2013-03-31 03:20:00,
2013-03-30 22:25:00,34.9,32.5,29.88,WNW,302,0.0,10.0,91,0.00,,---,0.18,VWS V14.00,2013-03-31 03:25:00,
2013-03-30 22:30:00,34.8,32.2,29.88,WNW,284,2.0,7.0,90,0.00,,---,0.18,VWS V14.00,2013-03-31 03:30:00,
2013-03-30 22:35:00,34.8,32.2,29.87,NW,309,4.0,7.0,90,0.00,,---,0.18,VWS V14.00,2013-03-31 03:35:00,
2013-03-30 22:40:00,34.7,32.1,29.87,WNW,290,3.0,7.0,90,0.00,,---,0.18,VWS V14.00,2013-03-31 03:40:00,
2013-03-30 22:45:00,34.6,32.0,29.87,WNW,285,0.0,7.0,90,0.00,,---,0.18,VWS V14.00,2013-03-31 03:45:00,
2013-03-30 22:50:00,34.5,32.2,29.87,WNW,285,2.0,7.0,91,0.00,,---,0.18,VWS V14.00,2013-03-31 03:50:00,
2013-03-30 22:55:00,34.4,32.0,29.87,West,277,0.0,7.0,91,0.00,,---,0.18,VWS V14.00,2013-03-31 03:55:00,
2013-03-30 23:00:00,34.3,32.0,29.87,NW,305,4.0,7.0,91,0.00,,---,0.18,VWS V14.00,2013-03-31 04:00:00,
2013-03-30 23:05:00,34.2,31.9,29.87,NW,304,3.0,7.0,91,0.00,,---,0.18,VWS V14.00,2013-03-31 04:05:00,
2013-03-30 23:10:00,34.1,31.8,29.87,WNW,296,5.0,11.0,91,0.00,,---,0.18,VWS V14.00,2013-03-31 04:10:00,
2013-03-30 23:15:00,34.1,31.8,29.87,West,281,0.0,11.0,91,0.00,,---,0.18,VWS V14.00,2013-03-31 04:15:00,
2013-03-30 23:20:00,34.0,31.6,29.87,WNW,286,0.0,11.0,91,0.00,,---,0.18,VWS V14.00,2013-03-31 04:20:00,
2013-03-30 23:25:00,33.9,31.6,29.87,WNW,294,4.0,11.0,91,0.00,,---,0.18,VWS V14.00,2013-03-31 04:25:00,
2013-03-30 23:30:00,33.9,31.6,29.87,NW,306,0.0,5.0,91,0.00,,---,0.18,VWS V14.00,2013-03-31 04:30:00,
2013-03-30 23:35:00,33.8,31.5,29.87,NW,308,0.0,5.0,91,0.00,,---,0.18,VWS V14.00,2013-03-31 04:35:00,
2013-03-30 23:40:00,33.7,31.4,29.87,WNW,296,0.0,5.0,91,0.00,,---,0.18,VWS V14.00,2013-03-31 04:40:00,
2013-03-30 23:45:00,33.6,31.3,29.86,WNW,299,0.0,5.0,91,0.00,,---,0.18,VWS V14.00,2013-03-31 04:45:00,
2013-03-30 23:50:00,33.4,31.1,29.86,West,271,1.0,6.0,91,0.00,,---,0.18,VWS V14.00,2013-03-31 04:50:00,
2013-03-30 23:55:00,33.3,31.0,29.86,West,271,0.0,6.0,91,0.00,,---,0.18,VWS V14.00,2013-03-31 04:55:00,